Find INTELSAT 902

NORAD ID: 26900 Int'l Des: 2001-039 Owner: INTELD Country: US operational
HEOCIRCULARGSO

リアルタイム位置

3D地球を読み込み中...

INTELSAT 902について

説明を読み込み中...

次回通過

Passes for default location (London). Set your location on the main map for personalized predictions.

高度履歴

Loading altitude history...

軌道要素

1 26900U 01039A 26105.86014649 -.00000272 00000-0 00000-0 0 9994
2 26900 5.9618 72.5283 0004644 309.5557 81.4853 1.00272397 90073
Epoch: Apr 15, 2026 • Age: 14 hours

現在のステータス

高度 35778.4 km
速度 3.08 km/s
衛星直下点 -5.39°S, 50.27°W
打ち上げ日 Aug 30, 2001
運用期間 24.6 years
タイプ communications

技術仕様

分類 Payload
質量 4723.00 kg
乾燥質量 1978.00 kg
総質量 4723.00 kg
長さ 5.60 m
直径 2.80 m
スパン 31.00 m
形状 Box + 2 Pan + 2 Dish
製造者 LOR
バスタイプ FS-1300HL
フェーズステータス In Orbit
所有者/国 INTELD/US

Most Searched